Regional Weather Roundup
Issued by NWS Jackson, KY

Home | Current Version | Previous Version | Graphics & Text | Print | Product List | Glossary On
Versions: 1 2 3 4 5 6 7 8 9 10 11 12 13 14 15 16 17 18 19 20 21 22 23 24 25 26 27
000
ASUS43 KJKL 271110
RWRJKL

EAST KENTUCKY HOURLY WEATHER ROUNDUP
NATIONAL WEATHER SERVICE JACKSON KY
700 AM EDT THU APR 27 2017

NOTE: "FAIR" INDICATES FEW OR NO CLOUDS BELOW 12,000 FEET WITH
NO SIGNIFICANT WEATHER AND/OR OBSTRUCTIONS TO VISIBILITY.

* THESE REPORTS ARE NOT UNDER NWS QUALITY CONTROL AND MAY NOT
  REPORT WEATHER SUCH AS PRECIPITATION AND FOG.

KYZ079-080-083-085-087-088-110-112-115-119-120-271200
...EASTERN KENTUCKY...

CITY           SKY/WX    TMP DP  RH WIND       PRES   REMARKS
JACKSON        MOCLDY    65  55  70 VRB3      29.70S
LONDON         LGT RAIN  65  56  72 S9        29.70R
SOMERSET*      LGT RAIN  63  55  77 S7        29.65F
MONTICELLO*    CLOUDY    63  59  87 SE15G24   29.65S
WILLIAMSBURG*  CLOUDY    63  59  88 S7        29.73R
MIDDLESBORO*   CLOUDY    69  55  60 S10G24    29.76R
HARLAN APT*    CLOUDY    63  54  72 CALM      29.76R
PIKE CO APT*     N/A     66  54  64 SE5       29.73S
BIG SANDY APT* MOSUNNY   64  54  70 S5        29.72S
MOREHEAD APT*  CLOUDY    68  54  60 S6        29.66F
$$

KYZ035-036-041-042-044-050-067-078-099-271200
...CENTRAL KENTUCKY...

CITY           SKY/WX    TMP DP  RH WIND       PRES   REMARKS
MT STERLING*   DRIZZLE   68  55  64 SW10      29.65F
FLEMING/MASON* CLOUDY    67  56  67 S10       29.63F
DANVILLE*      CLOUDY    64  55  72 S10G20    29.62S
LEXINGTON      CLOUDY    64  58  80 S6        29.60F
FRANKFORT      CLOUDY    62  56  80 S6        29.57F
LOUISVILLE     LGT RAIN  63  60  90 S9        29.57R
LEBANON*         N/A     63  59  88 SE8       29.59F
GLASGOW*       LGT RAIN N/A N/A N/A SW3       29.62R
BOWLING GREEN  LGT RAIN  64  62  93 SW7       29.61R
$$

KYZ091>093-OHZ055-061-077-WVZ005-015-034-035-042-271200
...SOUTHERN OHIO/WEST VIRGINIA...

CITY           SKY/WX    TMP DP  RH WIND       PRES   REMARKS
COVINGTON      CLOUDY    63  54  72 S8        29.56F
COLUMBUS       CLOUDY    69  54  58 SE9       29.62S
DAYTON         CLOUDY    65  52  62 SW7       29.56F
WILMINGTON     CLOUDY    66  58  75 S12       29.59F
HUNTINGTON     MOCLDY    59  54  83 E3        29.68S
CHARLESTON     PTCLDY    57  55  93 SE5       29.71R
PINEVILLE*     CLOUDY    53  52  96 MISG      29.81R
BECKLEY        CLOUDY    60  53  77 SE8       29.78S
BLUEFIELD      CLOUDY    62  50  64 MISG      29.82R
LOGAN CO APT*    N/A     66  54  63 VRB3      29.74R
$$

VAZ002-007-008-TNZ017-027-036-066-071-271200
...SOUTHWEST VIRGINIA/EAST TENNESSEE...

CITY           SKY/WX    TMP DP  RH WIND       PRES   REMARKS
WISE*          CLOUDY    63  52  67 CALM      29.79F
JONESVILLE*      N/A     55  55 100 CALM      29.79R
ABINGDON*      CLOUDY    59  54  85 CALM      29.80R
BRISTOL        MOCLDY    60  53  77 CALM      29.77R
MORRISTOWN*    MOSUNNY   59  57  94 CALM      29.78R
SEVIERVILLE*   SUNNY     61  54  77 VRB3      29.75R
KNOXVILLE      CLOUDY    69  52  54 S8        29.73R
LAFOLLETTE*    PTSUNNY   66  57  72 SW13G20   29.79R
OAK RIDGE      RAIN      63  58  83 SE7       29.75R
CROSSVILLE     LGT RAIN  60  57  89 S9G22     29.71R
NASHVILLE      CLOUDY    64  62  93 S7        29.64R
$$

...KEY TO REMARKS...
VSB - VISIBILITY IN MILES
WCI - WIND CHILL INDEX
HX  - HEAT INDEX

$$




USA.gov is the U.S. government's official web portal to all federal, state and local government web resources and services.